CDT,Max TemperatureF,Mean TemperatureF,Min TemperatureF,Max Dew PointF,MeanDew PointF,Min DewpointF,Max Humidity, Mean Humidity, Min Humidity, Max Sea Level PressureIn, Mean Sea Level PressureIn, Min Sea Level PressureIn, Max VisibilityMiles, Mean VisibilityMiles, Min VisibilityMiles, Max Wind SpeedMPH, Mean Wind SpeedMPH, Max Gust SpeedMPH,PrecipitationIn, CloudCover, Events, WindDirDegrees
2013-5-1,85,69,53,54,50,44,78,53,28,30.14,30.03,29.89,10,10,10,26,12,33,0.00,1,,200
2013-5-2,53,46,38,43,39,37,92,79,66,30.27,30.22,30.13,10,8,2,25,18,30,0.18,7,Rain-Thunderstorm,1
2013-5-3,52,45,37,50,40,34,100,93,85,30.18,30.00,29.88,10,4,2,21,15,25,1.47,8,Rain-Thunderstorm,21
2013-5-4,68,60,51,58,54,48,100,80,59,30.05,29.95,29.89,10,5,2,20,9,24,0.18,7,Rain,93
2013-5-5,74,62,50,56,52,45,100,72,44,30.06,30.02,29.96,10,5,0,16,8,22,0.00,2,Fog,2
2013-5-6,76,63,49,53,48,46,89,64,38,30.08,30.02,29.99,10,10,7,15,7,20,0.00,4,,27
2013-5-7,78,64,50,52,46,41,89,58,27,30.06,30.02,29.98,10,10,8,12,3,15,0.00,2,,87
2013-5-8,79,65,51,56,49,45,78,55,31,30.04,29.99,29.96,10,9,5,14,3,17,T,2,,246
2013-5-9,71,65,59,63,59,56,97,82,66,29.96,29.87,29.81,10,6,2,18,7,30,0.48,7,Rain,165
2013-5-10,60,52,44,58,48,44,93,83,72,30.01,29.93,29.81,10,8,1,20,10,24,0.07,7,Rain,12
2013-5-11,57,47,36,48,36,22,100,66,32,30.14,30.02,29.93,10,8,2,36,18,45,0.01,2,,283
2013-5-12,58,45,32,30,27,23,89,57,25,30.22,30.17,30.12,10,10,10,24,12,36,0.00,0,,300
2013-5-13,69,52,35,41,33,27,79,52,24,30.20,30.10,29.94,10,10,10,18,7,24,T,0,,202
2013-5-14,92,75,57,59,52,38,67,48,28,29.91,29.75,29.62,10,10,10,24,15,33,0.00,0,,208
2013-5-15,82,71,60,51,47,40,64,44,23,29.87,29.82,29.67,10,9,1,28,8,37,0.00,0,,332
2013-5-16,85,69,52,52,48,41,75,49,22,29.94,29.89,29.85,10,10,9,17,7,21,0.00,1,,139
2013-5-17,83,72,60,60,57,54,87,62,37,29.99,29.95,29.89,10,8,4,18,9,23,0.00,1,,159
2013-5-18,83,72,60,65,61,58,97,71,45,30.02,29.97,29.88,10,4,1,17,9,22,0.00,1,,129
2013-5-19,87,75,63,70,64,56,87,72,57,29.90,29.80,29.64,10,4,1,46,15,52,0.78,4,Rain-Thunderstorm,131
2013-5-20,80,71,62,63,60,56,93,72,51,29.76,29.70,29.52,10,10,5,43,15,58,0.05,2,Rain-Thunderstorm,194
2013-5-21,78,69,60,61,57,53,93,70,46,29.69,29.67,29.62,10,9,5,22,13,29,0.00,3,,213
2013-5-22,69,63,56,55,54,52,87,73,58,29.80,29.71,29.64,10,10,5,22,10,26,0.01,6,Rain,252
2013-5-23,67,58,48,55,50,41,100,72,44,30.28,30.01,29.79,10,7,1,23,12,28,0.08,6,Rain,5
2013-5-24,69,54,39,43,37,32,92,59,26,30.45,30.36,30.29,10,10,5,16,9,21,0.00,0,,112
2013-5-25,56,52,47,49,46,42,89,75,61,30.40,30.31,30.26,10,6,1,20,10,24,0.70,8,Rain-Thunderstorm,122
2013-5-26,58,54,49,56,51,44,100,90,80,30.25,30.16,30.04,10,3,0,20,13,26,1.86,8,Fog-Rain-Thunderstorm,101
2013-5-27,71,64,56,64,60,55,97,88,78,30.05,29.91,29.79,7,3,1,22,10,25,1.49,8,Rain-Thunderstorm,112
2013-5-28,79,71,63,71,65,61,93,84,74,29.85,29.75,29.66,10,7,4,29,13,36,0.36,6,Rain-Thunderstorm,204
2013-5-29,84,74,63,71,64,58,90,74,58,29.90,29.83,29.77,10,9,3,40,14,51,0.10,3,Rain-Thunderstorm,175
2013-5-30,83,73,63,70,65,60,93,78,63,29.81,29.76,29.68,10,7,0,43,19,54,0.70,4,Rain-Thunderstorm,177
2013-5-31,75,69,63,66,62,56,93,77,61,29.81,29.75,29.67,10,10,10,37,15,46,0.02,4,,182